Location: LDNL
(36.4545°S, 141.6685°E)
Time: 00:02:35
(UTC+10:00)

Envisat - Pass Details

Date: 01 July 2022
Orbit: 763 x 765 km, 98.2° (Epoch: 16 August)

Event Time Altitude Azimuth Distance (km) Brightness Sun altitude
Rises 18:17:22 0° 186° (S) 3,265 6.1 -9.7°
Reaches altitude 10° 18:20:22 10° 204° (SSW) 2,331 5.5 -10.3°
Maximum altitude 18:23:44 18° 245° (WSW) 1,826 5.6 -10.9°
Drops below altitude 10° 18:27:07 10° 287° (WNW) 2,313 7.1 -11.6°
Sets 18:30:05 0° 305° (NW) 3,230 7.9 -12.1°
